Location: Fayetteville
(35.0530°N, 78.8790°W)
Time: 17:28:07
(UTC-05:00)

Hubble Space Telescope - Pass Details

Date: 05 December 2021
Orbit: 534 x 538 km, 28.5° (Epoch: 28 January)

Event Time Altitude Azimuth Distance (km) Brightness Sun altitude
Exits shadow 04:43:28 12° 163° (SSE) 1,648 3.5 -29.1°
Drops below altitude 10° 04:43:58 10° 157° (SSE) 1,769 3.7 -29.0°
Sets 04:46:50 0° 137° (SE) 2,658 5.1 -28.4°
